Location: Escondido Hill
(38.9119°N, 104.7815°W)
Time: 04:33:16
(UTC-06:00)

Envisat - Visible Passes

Search period start: 18 August 2018 00:00
Search period end: 28 August 2018 00:00
Orbit: 764 x 766 km, 98.2° (Epoch: 17 August)

Date Brightness Start Highest point End Pass type
(mag) Time Alt. Az. Time Alt. Az. Time Alt. Az.
18 Aug 5.4 21:13:08 10° SW 21:16:53 21° W 21:20:41 10° NW visible
19 Aug 4.1 20:35:05 10° S 20:39:57 47° W 20:44:51 10° NNW visible
20 Aug 5.9 21:41:14 10° WSW 21:42:43 11° W 21:44:13 10° WNW visible
21 Aug 5.1 21:01:25 10° SSW 21:05:38 26° W 21:09:53 10° NW visible
22 Aug 3.6 20:23:45 10° S 20:28:45 61° W 20:33:47 10° NNW visible
23 Aug 5.7 21:28:39 10° SW 21:31:26 15° W 21:34:14 10° WNW visible
24 Aug 4.7 20:49:51 10° SSW 20:54:24 33° W 20:59:00 10° NNW visible
25 Aug 3.2 20:12:30 10° S 20:17:34 78° WSW 20:22:39 10° NNW visible
26 Aug 5.6 21:16:37 10° SW 21:20:09 19° W 21:23:42 10° NW visible
27 Aug 4.2 20:38:23 10° S 20:43:10 43° W 20:48:00 10° NNW visible
